Weather in Rudnaya Pristan

Russia / Primorsky Krai     44°21′55″N   135°49′13″E
temp.,
°C
wind,
m/s
gust,
m/s
humid.,
%
clouds,
%
prec.,
mm/h
press.,
hPa
HPBL,
m
18 may, tue
tue1801:00+11nnw2266100 0.0 100513
04:00+10wnw226526 0.0 100611
07:00+11nw22600 0.0 100717
10:00+14s33540 0.0 1008199
13:00+12sse45670 0.0 1008264
16:00+11s346967 0.0 1007155
19:00+10se118117 0.0 100742
22:00+9ne118043 0.0 100812
19 may, wed
wed1901:00+9nw11780 0.0 100711
04:00+8ssw228096 0.0 100813
07:00+9ssw117997 0.0 100818
10:00+10s338367 0.0 1008147
13:00+10s468350 0.0 1008188
16:00+10s688227 0.0 1007178
19:00+9s238990 0.0 100774
22:00+8s119411 0.0 100917
20 may, thu
thu2001:00+8wsw11897 0.0 100811
04:00+10sw11839 0.0 100911
07:00+11sw11800 0.0 101015
10:00+12s227822 0.0 1009132
13:00+12s348269 0.0 1009174
16:00+12s338290 0.1 1008135
19:00+10sse1290100 0.0 100748
22:00+11n1187100 0.1 100811
21 may, fri
fri2101:00+12wsw1180100 0.0 100712
04:00+13wsw1174100 0.0 100712
07:00+12s1175100 0.0 100713
10:00+12s2278100 0.0 100674
13:00+12s3579100 0.0 1006158
16:00+11sse2384100 0.0 1005113
19:00+11n2386100 0.0 100442
22:00+11nnw5579100 0.0 100446
22 may, sat
sat2201:00+9nne5885100 0.1 1003131
04:00+10ene5787100 0.4 100281
07:00+10ne81590100 0.3 1002438
10:00+10ne101893100 2.3 1003514
13:00+8ene71295100 0.4 1005298
16:00+10ene91784100 0.4 1006505
19:00+9ne101983100 0.1 1008552
22:00+9ne81680100 0.1 1010535